Theta_e
349 350 348 351 349 347 348 347 347 347 347 347 348 347 347 347 348 349 349 349 348 353 351 351 351 347 350 350 352 353 352 352 349 347 350 349 346 350 349 348 351 351 348
350 350 348 347 349 348 348 348 347 346 348 349 347 347 348 349 349 348 348 352 351 353 353 351 350 351 351 352 351 353 352 353 351 350 350 351 353 351 350 352 349 346 348
349 351 352 348 351 351 349 349 348 346 345 344 347 347 347 348 348 349 348 353 351 353 352 353 353 354 353 352 352 351 349 350 352 352 353 353 354 354 354 353 355 355 351
345 346 348 348 349 350 349 348 346 344 345 345 345 347 348 349 349 350 351 349 348 351 349 351 350 352 349 347 350 350 353 353 353 354 353 354 354 354 354 354 354 352 351
343 343 344 347 345 344 345 345 345 346 347 346 347 348 349 349 351 350 350 351 348 348 348 349 351 349 349 351 352 348 351 350 350 350 350 351 352 350 350 353 354 352 350
343 342 342 345 342 344 341 341 341 344 347 349 352 353 354 352 351 351 350 351 352 352 352 350 351 350 351 351 352 351 351 354 354 350 348 350 353 354 352 354 353 352 350
339 338 340 343 345 346 345 344 344 346 347 350 350 353 353 352 350 350 349 351 353 355 355 355 355 353 352 354 355 352 352 351 351 353 355 356 355 354 353 355 354 354 352
331 332 331 334 337 338 340 341 341 342 343 344 345 348 347 346 347 349 350 350 353 354 355 356 356 356 356 353 354 354 355 355 354 351 351 354 350 354 354 356 355 353 352
325 326 326 327 326 325 326 327 329 332 335 342 343 345 340 337 342 345 346 347 351 353 352 352 350 351 350 350 349 352 353 354 353 352 351 350 349 349 349 351 351 352 353
321 321 322 323 324 324 324 326 333 334 336 337 332 327 325 322 324 338 340 338 337 339 343 344 344 344 344 345 346 346 344 350 351 352 353 355 354 353 350 349 351 353 354
318 318 319 319 321 321 321 321 321 323 323 323 321 319 317 317 317 319 322 324 325 330 331 335 334 326 328 331 334 336 336 339 341 343 348 349 351 354 354 353 353 353 353
315 316 316 316 317 318 320 319 319 319 319 321 321 320 318 316 316 316 317 318 318 322 323 324 322 325 326 326 326 326 326 327 329 331 336 339 342 339 340 343 346 348 349
312 312 312 313 314 315 316 315 316 316 316 316 318 318 317 314 312 316 318 317 317 318 318 318 319 320 320 323 324 325 328 331 332 336 338 340 343 343 344 344 344 347 350
310 309 309 309 310 311 312 311 311 312 314 312 311 310 311 310 307 309 311 313 315 316 316 318 318 320 322 323 326 327 332 335 337 340 339 338 338 339 340 342 342 343 348
306 306 306 306 306 307 307 307 308 305 306 307 306 308 308 305 300 300 302 303 305 309 310 318 320 321 321 322 324 325 330 332 332 330 330 331 330 327 328 333 336 339 345
304 304 303 303 303 303 304 302 301 302 299 299 300 302 302 298 297 298 299 300 302 305 313 315 316 318 319 321 323 325 328 328 325 324 324 322 322 323 323 323 324 327 333
303 302 300 301 301 301 301 302 302 298 296 296 296 296 296 295 296 297 297 299 300 305 309 311 314 315 316 317 318 319 320 320 319 322 322 322 322 322 322 322 323 323 323
301 299 300 299 299 300 300 300 300 300 300 299 297 295 294 294 295 295 297 301 302 302 302 304 305 307 311 313 315 315 315 315 315 315 317 317 316 317 319 320 321 322 323
301 299 299 298 298 298 298 298 299 299 299 298 298 297 295 294 295 296 297 299 299 300 300 301 301 302 302 304 306 308 309 312 312 313 313 314 315 315 315 316 317 317 318
299 297 298 298 298 298 298 298 298 298 297 297 297 295 294 296 296 296 296 296 296 296 297 297 298 299 300 301 301 301 303 306 307 309 309 310 311 313 313 312 313 315 316
300 298 298 298 298 297 297 297 296 296 296 296 295 293 292 295 295 295 295 294 294 294 294 294 295 295 296 298 299 299 300 301 303 305 304 304 305 306 306 306 307 308 310
299 299 299 299 298 297 297 296 296 296 296 295 295 294 293 295 294 294 294 293 293 292 292 292 292 292 293 295 295 296 297 299 301 301 301 301 301 302 302 303 303 304 305
298 298 298 298 298 296 296 296 296 296 295 295 295 295 295 294 293 293 292 292 291 290 290 290 290 290 290 291 292 293 294 295 295 295 297 298 298 299 299 300 300 301 302
298 299 299 299 298 298 297 296 296 295 295 295 296 295 295 294 293 292 291 291 291 290 290 289 290 290 291 291 291 291 291 291 292 292 293 293 295 296 297 297 297 297 298
298 299 299 299 299 298 297 297 296 296 296 296 296 296 296 295 295 294 292 291 290 290 289 289 289 289 289 289 289 289 290 290 290 291 290 290 291 292 293 294 295 296 296
299 299 299 300 299 299 298 298 297 297 297 297 296 296 296 295 294 294 292 290 289 289 289 289 290 289 288 288 290 290 291 292 292 292 292 290 290 290 291 292 293 294 295
Wind_Speed
16 14 15 13 13 10 7 5 3 9 11 9 10 10 9 10 10 10 10 10 11 9 8 8 7 8 7 6 6 6 6 5 9 10 9 10 12 12 14 14 12 13 14
15 17 17 15 14 13 12 8 6 5 6 4 7 9 8 11 12 12 12 11 12 10 9 10 10 8 10 9 8 9 9 8 10 11 10 9 10 12 15 15 13 13 14
10 11 11 14 13 14 14 12 11 10 8 7 7 6 8 9 11 13 13 11 11 10 10 9 9 7 9 9 9 10 10 9 9 10 11 10 11 12 13 14 14 14 13
8 10 9 10 9 9 12 12 12 12 11 11 11 9 8 8 9 9 11 12 12 12 11 11 9 10 10 10 10 9 8 8 9 11 13 14 13 12 12 12 15 15 17
12 7 8 11 9 9 9 9 9 9 9 11 11 12 10 9 9 10 10 11 12 13 13 13 13 13 13 12 11 12 11 11 12 13 16 14 13 14 15 14 15 18 17
9 7 7 7 9 9 6 6 5 5 5 5 7 9 9 9 11 10 11 10 12 12 12 14 14 15 17 16 16 16 16 15 15 16 18 16 16 15 16 15 17 17 18
14 9 6 6 8 7 7 5 3 3 4 3 3 4 5 4 10 13 14 15 12 12 13 13 13 13 15 14 15 17 18 19 20 18 17 18 18 17 15 17 18 19 21
20 16 13 14 14 11 10 8 5 3 3 3 3 4 6 5 2 2 6 9 10 12 13 12 13 13 13 15 15 17 17 17 17 18 18 20 21 20 17 17 18 18 20
16 15 13 10 15 12 11 8 7 7 6 5 8 9 7 8 4 3 2 1 2 4 6 7 8 7 12 13 14 15 18 19 19 22 24 24 23 21 21 19 21 21 24
14 13 14 13 13 13 11 10 10 9 13 16 14 12 10 12 11 6 8 9 8 6 7 6 4 4 6 8 9 11 13 14 14 16 17 17 17 18 19 21 21 21 22
10 11 12 12 14 14 15 13 14 14 14 15 15 14 16 16 16 13 14 13 9 6 7 6 6 7 6 7 7 8 10 13 15 14 15 15 14 15 15 17 17 19 24
8 9 9 10 10 11 11 12 13 13 13 11 9 9 8 10 14 15 15 15 11 11 8 8 9 9 8 8 7 9 10 12 13 12 13 12 13 18 18 16 17 20 23
8 9 8 8 9 10 9 9 9 9 8 8 6 5 6 7 9 11 13 11 12 11 12 11 10 9 10 9 9 10 10 9 10 11 12 13 13 16 17 15 15 18 20
9 9 8 8 8 7 7 8 8 7 7 7 7 8 8 10 14 16 15 13 13 11 14 13 14 13 13 13 11 10 9 8 8 9 10 13 13 12 15 15 17 17 19
10 8 8 8 7 8 9 8 8 10 7 5 5 6 6 9 13 13 15 18 18 17 20 12 13 13 13 12 13 12 10 9 9 11 12 13 14 14 14 14 17 18 17
10 8 7 6 7 7 7 9 10 10 8 10 8 7 5 6 8 9 11 11 10 12 9 10 10 11 12 13 13 11 9 10 12 15 13 13 13 14 16 16 14 16 18
9 8 7 7 6 6 6 6 7 5 8 7 6 6 8 8 8 10 11 8 10 9 8 10 10 11 12 13 12 13 13 13 13 13 15 15 15 15 15 16 16 15 16
8 10 8 7 6 6 6 6 6 5 4 3 6 9 13 12 12 14 14 11 11 12 12 12 12 12 12 13 14 16 16 15 14 13 15 15 14 15 17 17 16 18 18
10 9 8 8 7 8 7 6 5 5 5 6 6 8 13 14 15 16 16 13 12 11 12 12 13 13 14 15 16 17 18 16 17 18 17 18 18 17 16 18 19 20 20
11 12 10 8 7 6 6 5 5 6 6 7 7 9 11 11 12 14 14 13 13 13 14 15 15 15 16 17 18 19 20 20 20 21 20 19 19 20 21 20 20 21 22
12 11 10 9 7 7 6 5 5 5 6 6 6 7 10 9 10 11 12 12 12 13 14 15 16 17 18 18 20 21 22 23 22 19 20 20 21 21 21 22 22 24 25
12 11 9 8 8 7 6 6 6 5 5 5 5 5 12 8 8 9 10 10 11 12 13 14 16 16 18 19 21 23 24 25 25 25 24 24 25 27 28 27 26 26 27
13 11 9 7 6 6 6 5 5 5 4 4 4 5 6 7 8 9 11 11 12 13 13 14 16 19 20 20 20 23 25 27 32 31 28 27 30 32 32 32 32 32 32
15 14 12 10 8 6 6 5 3 4 4 3 4 5 7 8 8 10 11 12 13 14 15 16 18 20 20 21 22 23 24 26 29 33 32 35 34 33 33 34 34 33 33
17 16 14 12 10 7 6 4 3 2 3 3 5 7 9 9 10 12 13 13 13 14 16 18 18 19 20 22 23 22 23 27 29 30 33 34 35 35 35 36 35 34 34
20 19 16 13 11 9 6 5 3 2 0 2 4 6 9 10 11 13 13 16 18 19 20 20 22 23 25 25 25 26 29 30 36 36 33 32 33 33 33 33 33 34 34
Wind_Direction
206 212 220 218 224 225 230 205 198 203 199 211 221 226 227 228 233 223 222 222 226 231 243 247 248 252 254 259 266 263 260 263 281 299 297 307 322 327 332 337 329 325 320
203 208 217 221 215 216 218 208 197 186 175 186 214 235 239 235 234 238 230 223 230 233 238 236 240 241 248 255 262 261 265 269 277 284 297 304 308 320 330 335 337 332 325
174 187 199 210 214 208 209 216 213 211 214 221 229 232 224 232 239 237 243 235 234 234 238 240 238 238 251 250 257 262 262 271 265 273 293 297 304 313 320 324 326 328 335
139 147 150 163 169 181 179 187 198 204 210 216 221 227 225 233 230 231 233 240 239 238 244 250 248 246 262 272 267 269 270 260 261 268 283 290 293 307 315 317 324 329 326
177 167 173 172 155 160 162 164 182 194 204 214 217 219 223 228 227 238 252 248 250 260 262 257 262 264 271 264 263 268 266 271 273 280 286 289 291 303 311 310 310 318 320
175 175 177 204 178 181 173 159 193 196 203 205 211 211 211 224 233 232 243 251 251 259 268 260 266 266 266 269 267 270 267 263 263 268 279 287 289 294 300 304 311 315 315
155 133 154 172 151 151 157 152 163 162 156 136 115 126 132 174 238 239 239 244 246 249 255 260 265 269 277 273 279 281 275 269 266 268 269 276 287 291 297 300 304 302 298
119 111 106 116 119 123 124 124 127 134 129 132 103 98 126 114 168 211 246 248 251 254 256 261 266 274 279 279 284 279 276 274 274 276 268 273 282 288 286 286 290 291 294
101 99 101 108 108 95 96 104 119 129 119 134 114 115 100 85 83 106 144 183 295 283 280 281 273 282 269 284 284 284 282 280 279 283 281 276 277 278 278 281 282 288 292
91 90 94 95 99 104 104 100 104 112 126 113 93 92 93 76 59 89 84 79 59 42 53 46 45 18 341 346 341 323 308 298 301 290 287 287 292 284 277 267 271 274 284
92 92 95 97 99 99 101 107 112 107 102 94 96 91 79 73 66 67 75 69 57 38 33 2 347 359 340 331 336 339 324 314 308 301 295 294 289 287 285 284 275 270 277
96 90 90 87 81 89 101 102 101 101 98 91 97 94 70 61 55 61 69 65 52 45 20 341 334 339 338 331 342 328 315 308 308 311 307 304 294 289 293 290 285 281 276
94 92 92 92 85 79 79 77 75 79 82 80 78 67 46 27 13 27 37 31 29 25 12 3 1 349 335 328 346 336 332 319 317 310 307 310 307 307 306 303 295 291 289
96 86 79 78 80 80 74 65 60 56 60 53 43 34 20 14 6 3 357 350 346 346 343 343 342 345 345 347 345 338 336 329 319 316 320 310 310 310 312 312 312 310 303
108 100 94 89 86 87 86 88 86 70 77 74 48 48 26 12 358 352 341 338 334 330 326 327 331 337 338 337 337 334 324 320 324 323 320 317 317 315 311 312 308 307 297
123 118 112 108 107 107 110 94 93 100 85 83 83 91 43 4 338 330 329 333 336 340 346 346 340 340 337 334 331 328 325 325 328 326 321 319 317 319 320 321 318 314 308
130 122 115 110 106 106 105 115 125 99 77 80 87 65 39 15 5 358 357 5 7 18 1 353 345 348 344 338 334 336 323 317 320 318 316 315 316 314 313 316 315 315 315
129 134 124 120 115 109 105 104 106 125 151 113 26 44 35 37 32 26 34 28 18 20 12 358 345 334 334 333 323 316 315 315 316 313 309 311 314 314 314 311 309 310 312
147 143 131 118 113 109 101 96 96 91 70 56 43 27 9 25 27 26 33 31 18 9 1 348 339 335 328 320 311 311 313 308 307 302 297 295 297 301 303 304 304 303 304
153 148 133 124 114 105 99 95 84 72 66 54 43 23 7 20 22 19 20 17 11 1 350 342 336 328 323 320 315 310 305 305 303 298 297 296 297 294 293 296 297 298 298
161 154 147 134 131 124 112 97 86 74 63 54 48 23 38 26 16 14 11 7 359 349 341 336 331 325 319 314 312 309 308 304 301 301 302 305 302 299 298 294 291 289 289
174 167 160 148 137 127 121 111 99 82 64 53 40 13 28 23 14 8 0 353 344 337 330 324 321 317 315 311 308 304 301 301 297 288 288 289 291 290 289 287 286 284 284
185 177 166 154 142 132 120 111 99 80 64 49 28 14 8 3 358 353 346 339 333 329 322 319 311 309 308 307 306 300 298 299 294 299 299 293 289 287 285 284 283 281 278
193 188 182 175 166 156 147 133 113 71 59 35 13 359 350 347 342 337 333 332 330 324 324 317 314 314 313 311 310 304 298 298 297 296 291 288 284 283 281 280 279 278 281
198 197 195 189 181 173 161 153 138 96 42 17 358 349 344 337 335 332 329 330 323 324 320 318 323 316 316 316 314 313 312 308 304 300 291 284 279 276 274 273 274 273 271
205 201 202 197 191 188 185 183 183 185 208 341 341 347 346 338 332 329 326 324 324 322 318 318 320 326 329 328 326 324 323 320 321 315 305 294 283 275 269 267 268 268 269